This is the latest recevied weather packets stored in our database for station/object BRIVER. If no packets are shown the sender has not sent any weather packets the latest 10 day(s).
| Time | Temp. | Humidity | Pressure | Rain* | Wind** | Luminosity | Snow |
|---|---|---|---|---|---|---|---|
| 1777678237 | 14.44° C | 72% | 1011.1 hPa | 0 mm | - | - | - |
| 1777677937 | 14.44° C | 71% | 1011.3 hPa | 0 mm | - | - | - |
| 1777677761 | 14.44° C | 70% | 1011.3 hPa | 0 mm | - | - | - |
| 1777677637 | 14.44° C | 71% | 1011.4 hPa | 0 mm | - | - | - |
| 1777677337 | 14.44° C | 71% | 1011.3 hPa | 0 mm | - | - | - |
| 1777677218 | 14.44° C | 71% | 1011.3 hPa | 0 mm | - | - | - |
| 1777677037 | 14.44° C | 69% | 1011.3 hPa | 0 mm | - | - | - |
| 1777676737 | 15° C | 68% | 1011.3 hPa | 0 mm | - | - | - |
| 1777676678 | 15° C | 68% | 1011.5 hPa | 0 mm | - | - | - |
| 1777676437 | 15° C | 70% | 1011.4 hPa | 0 mm | - | - | - |
| 1777676137 | 15° C | 65% | 1011.6 hPa | 0 mm | - | - | - |
| 1777675837 | 15° C | 69% | 1011.5 hPa | 0 mm | - | - | - |
| 1777675598 | 15° C | 64% | 1011.6 hPa | 0 mm | - | - | - |
| 1777675537 | 15.56° C | 65% | 1011.7 hPa | 0 mm | - | - | - |
| 1777675237 | 15° C | 64% | 1011.7 hPa | 0 mm | - | - | - |
| 1777675063 | 15° C | 62% | 1011.7 hPa | 0 mm | - | - | - |
| 1777674937 | 15° C | 60% | 1011.7 hPa | 0 mm | - | - | - |
| 1777674638 | 15.56° C | 64% | 1011.8 hPa | 0 mm | - | - | - |
| 1777674520 | 15.56° C | 62% | 1011.8 hPa | 0 mm | - | - | - |
| 1777674343 | 15.56° C | 63% | 1012 hPa | 0 mm | - | - | - |
| 1777674038 | 16.11° C | 60% | 1011.8 hPa | 0 mm | - | - | - |
| 1777673979 | 16.11° C | 61% | 1011.9 hPa | 0 mm | - | - | - |
| 1777673737 | 15.56° C | 60% | 1011.9 hPa | 0 mm | - | - | - |
| 1777673437 | 15° C | 66% | 1011.9 hPa | 0 mm | - | - | - |
| 1777673137 | 15° C | 63% | 1012 hPa | 0 mm | - | - | - |
* Rain latest hour (hover to see other rain measurements)
** Current wind speed in m/s (hover to see current wind gust speed)